Current weather by "City, St" or "zip code"  
 

Current Conditions: Scottsdale Airport, AZ

Fair


63.0 F

Last Updated on Oct 30 2020, 11:53 pm MST
Humidity: 33%
Wind Speed: N 0.0 mph
Barometer 30.00 in
Dewpoint: 33.1 F
Visibility: 10.00 mi
Precip: --
Heat Index: NA
Wind Chill: NA
Current conditions at:

Scottsdale Airport, AZ (KSDL)

Lat: 33.61235 Lon: 111.92316

Local Radar Image active severe weather and emergency alerts image image weather storm and storm spotter reports image weather observation monitoring service image
Local
Radar
Active
Alerts
Storm Reports Obs
Monitoring

Sign-up For Email & Text Message Weather Alert Notification Services



Advertise Here

Observation History for Scottsdale Airport, AZ


Time Wind
(mph)
Vis
(mi)
Weather Precip (in) Temperature (F) Relative
Humidity
Wind
Chill
(F)
Heat
Index
(F)
Pressure
Air Dwpt altimeter
(in)
sea level
(mb)
Rmks
11:53 pm MST N 0.0 10.00 Fair -- 63.0 33.1 33% NA NA 30.00 1013.9
10:53 pm MST N 0.0 10.00 Fair -- 65.0 35.1 33% NA NA 30.00 1014.1
9:53 pm MST N 3.5 10.00 Fair -- 71.0 32.0 24% NA NA 30.00 1013.9
8:53 pm MST N 5.8 10.00 Fair -- 72.0 32.0 23% NA NA 29.99 1013.6
7:53 pm MST N 4.6 10.00 Fair -- 74.0 33.1 22% NA NA 29.98 1013.3
6:53 pm MST N 0.0 10.00 Fair -- 77.0 33.1 20% NA NA 29.97 1013.1
5:53 pm MST N 0.0 10.00 Fair -- 81.0 33.1 18% NA 79 29.95 1012.2
4:53 pm MST N 0.0 10.00 Fair -- 84.0 30.9 15% NA 81 29.94 1011.9
3:53 pm MST SW 4.6 10.00 Fair -- 85.0 28.9 13% NA 82 29.95 1012.1
2:53 pm MST 3.5 10.00 Fair -- 85.0 30.0 14% NA 82 29.96 1012.4
1:53 pm MST NE 4.6 10.00 Fair -- 85.0 30.0 14% NA 82 29.98 1013.1
12:53 pm MST N 0.0 10.00 Fair -- 83.0 30.9 15% NA 80 30.01 1014.2
11:53 am MST 3.5 10.00 Fair -- 81.0 32.0 17% NA 79 30.04 1015.3
10:53 am MST N 0.0 10.00 Fair -- 78.0 32.0 19% NA NA 30.07 1016.2
9:53 am MST W 4.6 10.00 Fair -- 75.0 33.1 22% NA NA 30.08 1016.5
8:53 am MST N 0.0 10.00 Fair -- 70.0 33.1 26% NA NA 30.08 1016.8
7:53 am MST N 0.0 10.00 Fair -- 63.0 34.0 34% NA NA 30.07 1016.4
6:53 am MST W 3.5 10.00 Fair -- 59.0 33.1 38% NA NA 30.05 1015.8
5:53 am MST N 0.0 10.00 Fair -- 61.0 32.0 34% NA NA 30.04 1015.3
4:53 am MST W 3.5 10.00 Fair -- 61.0 32.0 34% NA NA 30.03 1014.8
3:53 am MST W 3.5 10.00 Fair -- 61.0 33.1 35% NA NA 30.02 1014.5
2:53 am MST N 0.0 10.00 Fair -- 61.0 34.0 36% NA NA 30.02 1014.7
1:53 am MST N 0.0 10.00 Fair -- 62.0 34.0 35% NA NA 30.03 1014.9
12:53 am MST N 0.0 10.00 Fair -- 63.0 34.0 34% NA NA 30.03 1015.0

Regional Weather Observation


Glendale, Glendale Municipal Airport, AZ (KGEU)

Mostly Cloudy
72.0 F

Phoenix, Phoenix Sky Harbor International Airport, AZ (KPHX)

Partly Cloudy
67.0 F

Luke Air Force Base / Phoenix, AZ (KLUF)

Fair
63.0 F

Scottsdale Airport, AZ (KSDL)

Fair
63.0 F

Goodyear Municipal, AZ (KGYR)

Mostly Cloudy
70.0 F

Mesa / Falcon Field, AZ (KFFZ)

Fair
69.0 F